Location: Newark
(33.8000°N, 42.4333°E)
Time: 01:46:56
(UTC+00:00)

Hubble Space Telescope - Visible Passes

Search period start: 13 November 2019 00:00
Search period end: 23 November 2019 00:00
Orbit: 536 x 540 km, 28.5° (Epoch: 12 November)

Date Brightness Start Highest point End Pass type
(mag) Time Alt. Az. Time Alt. Az. Time Alt. Az.
17 Nov 3.1 15:14:26 10° S 15:16:15 13° SSE 15:17:54 10° SE visible
18 Nov 2.9 15:03:04 10° SSW 15:05:33 16° SSE 15:07:58 10° ESE visible
18 Nov 3.6 16:42:32 10° SW 16:43:18 14° SW 16:43:18 14° SW visible
19 Nov 2.7 14:51:58 10° SSW 14:54:52 19° SSE 14:57:47 10° ESE visible
19 Nov 3.1 16:31:49 10° WSW 16:33:21 20° SW 16:33:21 20° SW visible
20 Nov 2.6 14:41:00 10° SW 14:44:12 22° SSE 14:47:25 10° ESE visible
20 Nov 2.6 16:21:09 10° WSW 16:23:22 26° SW 16:23:22 26° SW visible
21 Nov 2.4 14:30:07 10° SW 14:33:32 25° SSE 14:36:58 10° ESE visible
21 Nov 2.1 16:10:30 10° WSW 16:13:23 33° SSW 16:13:23 33° SSW visible
22 Nov 1.7 15:59:51 10° WSW 16:03:25 39° SSW 16:03:25 39° SSW visible
